Weather in Ponomarevka

Russia / Orenburg Oblast     53°18′57″N   54°07′23″E
temp.,
°C
wind,
m/s
gust,
m/s
humid.,
%
clouds,
%
prec.,
mm/h
press.,
hPa
HPBL,
m
25 february, thu
thu2523:00−25nnw58910 0.0 1030105
02:00−27nnw44940 0.0 103127
05:00−29nw34950 0.0 103320
08:00−30nw23970 0.0 103419
11:00−26nw11910 0.0 103549
14:00−23ssw22860 0.0 1034174
17:00−23ssw349329 0.0 1033114
20:00−24s4695100 0.0 1032110
26 february, fri
fri2623:00−22s5992100 0.0 1030233
02:00−21sse61097100 0.3 1028318
05:00−21s61197100 0.6 1027390
08:00−20sse71196100 0.3 1024376
11:00−18sse81294100 0.6 1024478
14:00−16sse81291100 0.2 1022594
17:00−14sse81191100 0.4 1020613
20:00−14sse6129497 0.1 1018405
27 february, sat
sat2723:00−13sse8139398 0.4 1015431
02:00−11sse101593100 0.4 1010435
05:00−8sse111894100 2.3 1005543
08:00−5s101694100 5.3 1000558
11:00−1ssw71098100 6.2 1000303
14:000sw711100100 0.4 999542
17:000wsw6998100 1.0 1000463
20:000sw61097100 0.4 1000402
28 february, sun
sun2823:00−2sw5997100 0.7 1000191
02:00−2sw5997100 0.1 999250
05:00−2sw51097100 0.6 999321
08:00−2sw5997100 0.8 999330
11:00−2sw6897100 1.7 1000454
14:00−4wnw5596100 0.8 1002249
17:00−6wnw5694100 1.3 1004303
20:00−11wnw579591 0.1 100695
1 march, mon
mon123:00−14nw459695 0.1 100972
02:00−16wnw349692 0.0 101033
05:00−16wnw349790 0.1 101259
08:00−16wnw339687 0.1 101452
11:00−14nw459490 0.3 1016247
14:00−12nnw348997 0.1 1017310
17:00−12nw459399 0.1 1018286
20:00−15nw449584 0.1 102066